Beatrice, NE

3:58 PM CST on February 07, 2016 (GMT -0600)
Beatrice Municipal

Weather History for KBIE - September, 2013

Change the Weather History Date:

Monday, September 23, 2013

  Actual Average Record
Temperature  
Mean Temperature 66 °F -  
Max Temperature 77 °F 76 °F 87 °F (1979)
Min Temperature 54 °F 50 °F 32 °F (1983)
Growing Degree Days 16 (Base 50)    
Moisture  
Dew Point 50 °F    
Average Humidity 58    
Maximum Humidity 81    
Minimum Humidity 36    
Precipitation  
Precipitation 0.00 in - - ()
Sea Level Pressure  
Sea Level Pressure 29.76 in    
Wind  
Wind Speed 12 mph (SSE)    
Max Wind Speed 24 mph    
Max Gust Speed 36 mph    
Visibility 10 miles    
Events      
Averages and records for this station are not official NWS values.
T = Trace of Precipitation, MM = Missing Value Source: NWS Daily Summary

Daily Weather History Graph

Daily Weather History Graph

Search for Another Location

Airport or City:

Trip Planner

Search our weather history database for the weather conditions in past years. The results will help you decide how hot, cold, wet, or windy it might be!

Date:

Astronomy

Sep. 23, 2013 Rise Set
Actual Time 7:15 AM CDT 7:21 PM CDT
Civil Twilight 6:48 AM CDT 7:49 PM CDT
Nautical Twilight 6:16 AM CDT 8:20 PM CDT
Astronomical Twilight 5:44 AM CDT 8:52 PM CDT
Moon 9:54 PM CDT (9/23) 11:36 AM CDT (9/23)
Length of Visible Light 13h 00m
Length of Day
12h 06m
Waning Gibbous, 81% of the Moon is Illuminated
Sep 23
Waning Gibbous
Sep 26
Last Quarter
Oct 4
New
Oct 11
First Quarter
Oct 18
Full

Hourly Weather History & Observations

Time (CDT) Temp. Dew Point Humidity Pressure Visibility Wind Dir Wind Speed Gust Speed Precip Events Conditions
12:15 AM 60.1 °F 48.6 °F 66% 29.84 in 10.0 mi SSE 6.9 mph - N/A   Clear
12:35 AM 59.4 °F 48.4 °F 67% 29.84 in 10.0 mi SSE 10.4 mph - N/A   Clear
12:55 AM 58.8 °F 48.4 °F 68% 29.84 in 10.0 mi SE 9.2 mph - N/A   Clear
1:15 AM 58.3 °F 48.6 °F 70% 29.83 in 10.0 mi SE 9.2 mph - N/A   Clear
1:35 AM 57.2 °F 48.6 °F 73% 29.83 in 10.0 mi SE 6.9 mph - N/A   Clear
1:55 AM 56.5 °F 48.4 °F 74% 29.83 in 10.0 mi SE 8.1 mph - N/A   Clear
2:15 AM 56.3 °F 48.4 °F 75% 29.83 in 10.0 mi SE 10.4 mph - N/A   Clear
2:35 AM 56.5 °F 48.2 °F 74% 29.83 in 10.0 mi SSE 9.2 mph - N/A   Clear
2:55 AM 56.3 °F 48.2 °F 74% 29.82 in 10.0 mi SSE 8.1 mph - N/A   Clear
3:15 AM 55.6 °F 48.2 °F 76% 29.81 in 10.0 mi SSE 9.2 mph - N/A   Clear
3:35 AM 55.0 °F 48.2 °F 78% 29.81 in 10.0 mi SE 9.2 mph - N/A   Clear
3:55 AM 54.7 °F 48.2 °F 79% 29.81 in 10.0 mi SE 8.1 mph - N/A   Clear
4:15 AM 55.6 °F 48.2 °F 76% 29.80 in 10.0 mi SE 8.1 mph - N/A   Clear
4:35 AM 55.6 °F 48.2 °F 76% 29.80 in 10.0 mi SSE 10.4 mph - N/A   Clear
4:55 AM 55.9 °F 48.4 °F 76% 29.80 in 10.0 mi SE 9.2 mph - N/A   Clear
5:15 AM 56.3 °F 48.4 °F 75% 29.80 in 10.0 mi SSE 10.4 mph - N/A   Clear
5:35 AM 56.3 °F 48.6 °F 75% 29.80 in 10.0 mi SSE 9.2 mph - N/A   Clear
5:55 AM 55.8 °F 48.7 °F 77% 29.80 in 10.0 mi SSE 11.5 mph - N/A   Clear
6:15 AM 55.4 °F 48.7 °F 78% 29.81 in 10.0 mi SSE 9.2 mph - N/A   Clear
6:35 AM 54.9 °F 48.7 °F 80% 29.81 in 10.0 mi SE 8.1 mph - N/A   Clear
6:55 AM 54.7 °F 48.7 °F 80% 29.82 in 10.0 mi SSE 9.2 mph - N/A   Clear
7:15 AM 54.7 °F 48.9 °F 81% 29.82 in 10.0 mi SSE 9.2 mph - N/A   Clear
7:35 AM 54.7 °F 49.1 °F 81% 29.83 in 10.0 mi SSE 8.1 mph - N/A   Clear
7:55 AM 55.8 °F 49.3 °F 79% 29.82 in 10.0 mi SSE 11.5 mph - N/A   Clear
8:15 AM 56.8 °F 49.6 °F 77% 29.81 in 10.0 mi SSE 10.4 mph - N/A   Clear
8:35 AM 58.1 °F 49.8 °F 74% 29.81 in 10.0 mi SSE 11.5 mph 17.3 mph N/A   Clear
8:55 AM 58.5 °F 49.8 °F 73% 29.80 in 10.0 mi SSE 11.5 mph - N/A   Clear
9:15 AM 60.1 °F 50.4 °F 70% 29.80 in 10.0 mi SSE 18.4 mph 26.5 mph N/A   Clear
9:35 AM 62.4 °F 51.1 °F 66% 29.81 in 10.0 mi SE 15.0 mph 21.9 mph N/A   Clear
9:55 AM 63.5 °F 51.1 °F 64% 29.80 in 10.0 mi SSE 18.4 mph 24.2 mph N/A   Clear
10:15 AM 66.2 °F 52.0 °F 60% 29.81 in 10.0 mi SSE 15.0 mph 19.6 mph N/A   Clear
10:35 AM 68.4 °F 51.8 °F 55% 29.81 in 10.0 mi South 16.1 mph 25.3 mph N/A   Clear
10:55 AM 69.1 °F 52.0 °F 54% 29.80 in 10.0 mi South 21.9 mph 29.9 mph N/A   Clear
11:15 AM 70.9 °F 53.2 °F 54% 29.80 in 10.0 mi SSE 13.8 mph 20.7 mph N/A   Clear
11:35 AM 71.8 °F 52.9 °F 51% 29.79 in 10.0 mi SSE 18.4 mph 26.5 mph N/A   Clear
11:55 AM 72.7 °F 52.5 °F 49% 29.78 in 10.0 mi SSE 18.4 mph 25.3 mph N/A   Clear
12:15 PM 73.6 °F 52.0 °F 47% 29.78 in 10.0 mi South 18.4 mph 27.6 mph N/A   Clear
12:35 PM 74.1 °F 51.1 °F 44% 29.78 in 10.0 mi South 19.6 mph 31.1 mph N/A   Clear
1:15 PM 75.4 °F 50.5 °F 42% 29.76 in 10.0 mi South 20.7 mph 29.9 mph N/A   Clear
1:35 PM 75.2 °F 50.0 °F 41% 29.76 in 10.0 mi South 18.4 mph 29.9 mph N/A   Clear
1:55 PM 76.1 °F 48.9 °F 38% 29.74 in 10.0 mi SSE 20.7 mph 29.9 mph N/A   Clear
2:15 PM 76.3 °F 47.5 °F 36% 29.73 in 10.0 mi SSE 23.0 mph 32.2 mph N/A   Clear
2:35 PM 76.8 °F 49.1 °F 38% 29.72 in 10.0 mi SE 24.2 mph 32.2 mph N/A   Clear
2:55 PM 76.8 °F 48.4 °F 37% 29.72 in 10.0 mi SSE 21.9 mph 35.7 mph N/A   Clear
3:15 PM 77.0 °F 49.8 °F 38% 29.72 in 10.0 mi South 21.9 mph 31.1 mph N/A   Clear
3:35 PM 77.0 °F 49.8 °F 38% 29.71 in 10.0 mi SSE 19.6 mph 31.1 mph N/A   Clear
3:55 PM 77.0 °F 50.4 °F 39% 29.71 in 10.0 mi SSE 19.6 mph 32.2 mph N/A   Clear
4:15 PM 76.6 °F 49.8 °F 39% 29.70 in 10.0 mi SSE 23.0 mph 32.2 mph N/A   Clear
4:35 PM 75.6 °F 50.0 °F 41% 29.70 in 10.0 mi SSE 21.9 mph 29.9 mph N/A   Clear
4:55 PM 74.8 °F 49.3 °F 40% 29.71 in 10.0 mi SSE 16.1 mph 29.9 mph N/A   Clear
5:15 PM 75.9 °F 49.5 °F 39% 29.70 in 10.0 mi SSE 20.7 mph 25.3 mph N/A   Scattered Clouds
5:35 PM 74.3 °F 48.2 °F 40% 29.70 in 10.0 mi SSE 17.3 mph 28.8 mph N/A   Clear
5:55 PM 74.7 °F 48.2 °F 39% 29.70 in 10.0 mi SE 20.7 mph 25.3 mph N/A   Scattered Clouds
6:15 PM 74.5 °F 47.8 °F 39% 29.69 in 10.0 mi SSE 18.4 mph 28.8 mph N/A   Clear
6:35 PM 73.9 °F 47.5 °F 39% 29.70 in 10.0 mi SSE 15.0 mph 26.5 mph N/A   Scattered Clouds
6:55 PM 73.4 °F 48.2 °F 41% 29.71 in 10.0 mi SSE 16.1 mph - N/A   Mostly Cloudy
7:15 PM 72.9 °F 47.7 °F 41% 29.71 in 10.0 mi SSE 15.0 mph 23.0 mph N/A   Scattered Clouds
7:35 PM 72.1 °F 47.7 °F 42% 29.71 in 10.0 mi SE 13.8 mph 20.7 mph N/A   Clear
7:55 PM 71.1 °F 48.4 °F 44% 29.70 in 10.0 mi SE 13.8 mph - N/A   Clear
8:15 PM 70.2 °F 48.7 °F 46% 29.70 in 10.0 mi ESE 9.2 mph - N/A   Scattered Clouds
8:35 PM 67.6 °F 50.2 °F 54% 29.70 in 10.0 mi SE 11.5 mph 17.3 mph N/A   Mostly Cloudy
8:55 PM 67.6 °F 50.0 °F 53% 29.70 in 10.0 mi SE 10.4 mph - N/A   Mostly Cloudy
9:15 PM 67.6 °F 50.0 °F 53% 29.71 in 10.0 mi SE 11.5 mph - N/A   Mostly Cloudy
9:35 PM 68.0 °F 50.5 °F 54% 29.71 in 10.0 mi SE 13.8 mph - N/A   Overcast
9:55 PM 67.6 °F 50.9 °F 55% 29.71 in 10.0 mi SE 13.8 mph - N/A   Overcast
10:15 PM 68.0 °F 51.4 °F 55% 29.70 in 10.0 mi SE 15.0 mph 19.6 mph N/A   Overcast
10:35 PM 68.5 °F 52.2 °F 56% 29.71 in 10.0 mi SE 17.3 mph - N/A   Overcast
10:55 PM 69.3 °F 52.3 °F 55% 29.69 in 10.0 mi SSE 16.1 mph 20.7 mph N/A   Overcast
11:15 PM 69.8 °F 52.2 °F 53% 29.68 in 10.0 mi SSE 20.7 mph 29.9 mph N/A   Mostly Cloudy
11:35 PM 69.1 °F 52.2 °F 55% 29.69 in 10.0 mi SSE 15.0 mph 25.3 mph N/A   Mostly Cloudy
11:55 PM 68.9 °F 52.3 °F 55% 29.69 in 10.0 mi South 13.8 mph 26.5 mph N/A   Mostly Cloudy